| time (UTC) | temp C | wind direction | speed KPH | gust KPH | rain 1hr cm | rain 24hr cm | rain mn cm | humidity % | barometer mb |
| 20260902043047 | 15 | 88 | 0.0 | 0.0 | 0.00 | 0.69 | 0.00 | 98 | 1018.7 |
| 20260902041541 | 15 | 88 | 0.0 | 0.0 | 0.00 | 0.69 | 0.00 | 98 | 1018.4 |
| 20260902040039 | 15 | 88 | 0.0 | 0.0 | 0.00 | 0.69 | 0.00 | 98 | 1018.1 |
| 20260902034526 | 15 | 88 | 0.0 | 0.0 | 0.00 | 0.69 | 0.69 | 98 | 1017.8 |
| 20260902033006 | 15 | 88 | 0.0 | 0.0 | 0.00 | 0.69 | 0.69 | 98 | 1017.8 |
| 20260902031529 | 15 | 88 | 0.0 | 0.0 | 0.00 | 0.69 | 0.69 | 98 | 1017.9 |
| 20260902030104 | 15 | 88 | 0.0 | 0.0 | 0.00 | 0.69 | 0.69 | 98 | 1018.0 |
| 20260902024537 | 15 | 88 | 0.0 | 0.0 | 0.00 | 0.69 | 0.69 | 97 | 1017.9 |
| 20260902023029 | 15 | 88 | 0.0 | 0.0 | 0.00 | 0.69 | 0.69 | 97 | 1018.0 |
| 20260902021502 | 15 | 92 | 0.0 | 0.0 | 0.00 | 0.69 | 0.69 | 97 | 1018.2 |
| 20260902020145 | 15 | 92 | 0.0 | 0.0 | 0.00 | 0.69 | 0.69 | 97 | 1017.9 |
| 20260902014559 | 15 | 92 | 0.0 | 0.0 | 0.00 | 0.69 | 0.69 | 97 | 1017.9 |
| 20260902013040 | 15 | 92 | 0.0 | 0.0 | 0.00 | 0.69 | 0.69 | 97 | 1017.7 |
| 20260902011556 | 15 | 92 | 0.0 | 0.0 | 0.00 | 0.69 | 0.69 | 97 | 1017.6 |
| 20260902010058 | 15 | 92 | 0.0 | 0.0 | 0.00 | 0.69 | 0.69 | 97 | 1017.6 |
| 20260902004604 | 15 | 92 | 0.0 | 0.0 | 0.00 | 0.69 | 0.69 | 97 | 1017.5 |
| 20260902003054 | 15 | 92 | 0.0 | 0.0 | 0.00 | 0.69 | 0.69 | 97 | 1017.1 |
| 20260902001558 | 15 | 92 | 0.0 | 0.0 | 0.00 | 0.69 | 0.69 | 97 | 1017.0 |
| 20260902000046 | 16 | 94 | 0.0 | 0.0 | 0.00 | 0.69 | 0.69 | 97 | 1016.8 |
| 20260901234554 | 16 | 90 | 0.0 | 0.0 | 0.00 | 0.69 | 0.69 | 97 | 1016.6 |
| 20260901233034 | 16 | 90 | 0.0 | 0.0 | 0.00 | 0.69 | 0.69 | 97 | 1016.5 |
| 20260901231533 | 16 | 97 | 0.0 | 0.0 | 0.00 | 0.69 | 0.69 | 97 | 1016.6 |
| 20260901230047 | 16 | 97 | 0.0 | 0.0 | 0.00 | 0.69 | 0.69 | 97 | 1016.7 |
| 20260901224557 | 16 | 97 | 0.0 | 0.0 | 0.00 | 0.69 | 0.69 | 97 | 1016.5 |
| 20260901223046 | 16 | 136 | 0.0 | 0.0 | 0.00 | 0.69 | 0.69 | 97 | 1016.7 |
| 20260901221620 | 16 | 49 | 0.0 | 0.0 | 0.00 | 0.69 | 0.69 | 97 | 1016.5 |
| 20260901220052 | 16 | 49 | 0.0 | 0.0 | 0.00 | 0.69 | 0.69 | 97 | 1016.3 |
| 20260901214552 | 16 | 39 | 0.0 | 0.0 | 0.00 | 0.69 | 0.69 | 96 | 1016.2 |
| 20260901213044 | 17 | 76 | 0.0 | 0.0 | 0.00 | 0.69 | 0.69 | 97 | 1015.9 |
| 20260901211546 | 17 | 97 | 0.0 | 0.0 | 0.00 | 0.69 | 0.69 | 97 | 1015.8 |
| 20260901210025 | 17 | 97 | 0.0 | 0.0 | 0.00 | 0.69 | 0.69 | 96 | 1015.8 |
| 20260901204505 | 17 | 136 | 0.0 | 0.0 | 0.00 | 0.69 | 0.69 | 96 | 1015.8 |
| 20260901203106 | 17 | 136 | 0.0 | 0.0 | 0.00 | 0.69 | 0.69 | 96 | 1015.6 |
| 20260901201551 | 17 | 136 | 0.0 | 0.0 | 0.00 | 0.69 | 0.69 | 96 | 1015.7 |
| 20260901200103 | 17 | 136 | 0.0 | 0.0 | 0.00 | 0.69 | 0.69 | 96 | 1015.5 |
| 20260901194544 | 17 | 142 | 0.0 | 0.0 | 0.00 | 0.69 | 0.69 | 96 | 1015.5 |
| 20260901193104 | 17 | 187 | 0.0 | 0.0 | 0.00 | 0.69 | 0.69 | 97 | 1015.5 |
| 20260901191545 | 17 | 234 | 0.0 | 0.0 | 0.00 | 0.69 | 0.69 | 97 | 1015.4 |
| 20260901190041 | 16 | 236 | 0.0 | 0.0 | 0.03 | 0.69 | 0.69 | 97 | 1015.6 |
| 20260901184536 | 16 | 149 | 0.0 | 0.0 | 0.03 | 0.69 | 0.69 | 97 | 1015.7 |
| 20260901183030 | 16 | 104 | 0.0 | 0.0 | 0.05 | 0.69 | 0.69 | 97 | 1015.8 |
| 20260901181554 | 16 | 105 | 0.0 | 0.0 | 0.05 | 0.69 | 0.69 | 97 | 1015.8 |
| 20260901180044 | 16 | 118 | 0.0 | 0.0 | 0.05 | 0.66 | 0.66 | 97 | 1015.8 |
| 20260901174533 | 17 | 119 | 0.0 | 0.0 | 0.05 | 0.66 | 0.66 | 97 | 1015.5 |
| 20260901173008 | 17 | 119 | 0.0 | 0.0 | 0.03 | 0.64 | 0.64 | 97 | 1015.4 |
| 20260901171554 | 17 | 119 | 0.0 | 0.0 | 0.03 | 0.64 | 0.64 | 97 | 1015.4 |
| 20260901170048 | 17 | 119 | 0.0 | 0.0 | 0.00 | 0.61 | 0.61 | 97 | 1015.3 |
| 20260901164536 | 17 | 119 | 0.0 | 0.0 | 0.05 | 0.61 | 0.61 | 97 | 1015.4 |
| 20260901163014 | 17 | 248 | 0.0 | 0.0 | 0.13 | 0.61 | 0.61 | 97 | 1015.3 |
| 20260901161556 | 17 | 257 | 0.0 | 0.0 | 0.18 | 0.61 | 0.61 | 97 | 1015.2 |
| 20260901160049 | 17 | 98 | 0.0 | 0.0 | 0.20 | 0.61 | 0.61 | 97 | 1014.2 |
| 20260901154513 | 17 | 83 | 0.0 | 0.0 | 0.13 | 0.53 | 0.53 | 97 | 1015.2 |
| 20260901153054 | 17 | 83 | 0.0 | 0.0 | 0.08 | 0.48 | 0.48 | 97 | 1015.4 |
| 20260901151600 | 17 | 90 | 0.0 | 0.0 | 0.03 | 0.43 | 0.43 | 97 | 1015.3 |
| 20260901150036 | 17 | 88 | 0.0 | 0.0 | 0.00 | 0.41 | 0.41 | 97 | 1015.3 |
| 20260901144510 | 17 | 117 | 0.0 | 0.0 | 0.00 | 0.41 | 0.41 | 98 | 1015.0 |
| 20260901143004 | 16 | 123 | 0.0 | 0.0 | 0.00 | 0.41 | 0.41 | 97 | 1015.2 |
| 20260901141507 | 16 | 163 | 0.0 | 0.0 | 0.00 | 0.41 | 0.41 | 98 | 1015.0 |
| 20260901140047 | 16 | 233 | 0.0 | 0.0 | 0.00 | 0.41 | 0.41 | 98 | 1015.6 |
| 20260901134554 | 16 | 233 | 0.0 | 0.0 | 0.00 | 0.41 | 0.41 | 97 | 1015.8 |
| 20260901133033 | 16 | 233 | 0.0 | 0.0 | 0.00 | 0.41 | 0.41 | 97 | 1015.9 |
| 20260901131632 | 16 | 233 | 0.0 | 0.0 | 0.00 | 0.41 | 0.41 | 97 | 1015.8 |
| 20260901130113 | 16 | 233 | 0.0 | 0.0 | 0.00 | 0.41 | 0.41 | 97 | 1016.0 |
| 20260901124558 | 16 | 233 | 0.0 | 0.0 | 0.03 | 0.41 | 0.41 | 98 | 1015.5 |
| 20260901123050 | 16 | 233 | 0.0 | 0.0 | 0.03 | 0.41 | 0.41 | 97 | 1015.8 |
| 20260901121529 | 16 | 233 | 0.0 | 0.0 | 0.08 | 0.41 | 0.41 | 97 | 1016.0 |
| 20260901120106 | 16 | 233 | 0.0 | 0.0 | 0.20 | 0.41 | 0.41 | 97 | 1016.0 |
| 20260901114612 | 16 | 233 | 0.0 | 0.0 | 0.25 | 0.38 | 0.38 | 97 | 1015.7 |
| 20260901113012 | 16 | 233 | 0.0 | 0.0 | 0.33 | 0.38 | 0.38 | 97 | 1015.9 |
| 20260901111552 | 16 | 233 | 0.0 | 0.0 | 0.28 | 0.30 | 0.33 | 97 | 1016.1 |
| 20260901110038 | 16 | 233 | 0.0 | 0.0 | 0.18 | 0.18 | 0.18 | 97 | 1015.6 |
| 20260901104534 | 16 | 233 | 0.0 | 0.0 | 0.13 | 0.13 | 0.13 | 97 | 1015.5 |
| 20260901103131 | 16 | 233 | 0.0 | 0.0 | 0.05 | 0.05 | 0.05 | 96 | 1015.6 |
| 20260901101617 | 16 | 233 | 0.0 | 0.0 | 0.03 | 0.03 | 0.03 | 96 | 1015.3 |
| 20260901100057 | 16 | 233 | 0.0 | 0.0 | 0.00 | 0.00 | 0.00 | 96 | 1015.3 |
| 20260901094548 | 17 | 233 | 0.0 | 0.0 | 0.00 | 0.00 | 0.00 | 95 | 1015.2 |
| 20260901093037 | 17 | 233 | 0.0 | 0.0 | 0.00 | 0.00 | 0.00 | 95 | 1015.2 |
| 20260901091544 | 17 | 233 | 0.0 | 0.0 | 0.00 | 0.00 | 0.00 | 96 | 1015.2 |
| 20260901090037 | 16 | 233 | 0.0 | 0.0 | 0.00 | 0.00 | 0.00 | 96 | 1015.4 |
| 20260901084543 | 16 | 233 | 0.0 | 0.0 | 0.00 | 0.00 | 0.00 | 96 | 1015.4 |
| 20260901083036 | 16 | 233 | 0.0 | 0.0 | 0.00 | 0.00 | 0.00 | 96 | 1015.3 |
| 20260901081534 | 16 | 233 | 0.0 | 0.0 | 0.00 | 0.00 | 0.00 | 96 | 1015.5 |
| 20260901080035 | 16 | 233 | 0.0 | 0.0 | 0.00 | 0.00 | 0.00 | 96 | 1015.5 |
| 20260901074611 | 16 | 233 | 0.0 | 0.0 | 0.00 | 0.00 | 0.00 | 96 | 1015.3 |
| 20260901073105 | 16 | 233 | 0.0 | 0.0 | 0.00 | 0.00 | 0.00 | 96 | 1015.2 |
| 20260901071553 | 16 | 233 | 0.0 | 0.0 | 0.00 | 0.00 | 0.00 | 95 | 1015.6 |
| 20260901070056 | 16 | 233 | 0.0 | 0.0 | 0.00 | 0.00 | 0.00 | 95 | 1015.7 |
| 20260901064550 | 16 | 233 | 0.0 | 0.0 | 0.00 | 0.00 | 0.00 | 96 | 1016.2 |
| 20260901063042 | 16 | 233 | 0.0 | 0.0 | 0.00 | 0.00 | 0.00 | 95 | 1016.3 |
| 20260901061556 | 16 | 233 | 0.0 | 0.0 | 0.00 | 0.00 | 0.00 | 95 | 1016.4 |
| 20260901060034 | 16 | 233 | 0.0 | 0.0 | 0.00 | 0.00 | 0.00 | 95 | 1016.4 |
| 20260901054527 | 16 | 233 | 0.0 | 0.0 | 0.00 | 0.00 | 0.00 | 95 | 1016.2 |
| 20260901053018 | 16 | 233 | 0.0 | 0.0 | 0.00 | 0.00 | 0.00 | 95 | 1016.5 |
| 20260901051554 | 16 | 233 | 0.0 | 0.0 | 0.00 | 0.00 | 0.00 | 95 | 1016.8 |
| 20260901044614 | 16 | 233 | 0.0 | 0.0 | 0.00 | 0.00 | 0.00 | 95 | 1016.5 |